Location: Banff
(51.1670°N, 115.5670°W)
Time: 03:29:49
(UTC-06:00)

Daily predictions for brighter satellites

Satellite Brightness Start Highest point End
(mag) Time Altitude Azimuth Time Altitude Azimuth Time Altitude Azimuth
Terra 2.5 00:03:30 36° SW 00:04:54 47° W 00:09:31 10° NNW
Cosmos 1626 Rocket 3.8 00:02:32 10° NNW 00:06:48 59° W 00:07:26 52° SW
Timation 1 Rocket 4.3 00:01:01 10° NNW 00:07:03 86° WSW 00:08:47 49° SSE
DNEPR-1 R/B 4.3 00:03:21 10° NW 00:07:32 48° NE 00:08:37 39° E
Cosmos 1844 4.1 00:03:24 10° NW 00:08:54 52° WSW 00:10:28 40° SSW
Cosmos 2360 Rocket 3.0 00:04:37 10° SW 00:10:05 50° NW 00:15:35 10° NNE
NOSS 3-2 (C) 4.0 00:03:27 10° NW 00:10:47 69° SW 00:13:52 40° SSE
Aureole 2 Rocket 3.8 00:12:15 32° NE 00:12:15 32° NE 00:14:06 10° NNE
Cosmos 968 Rocket 3.5 00:06:27 10° NNW 00:11:36 68° ENE 00:12:31 55° ESE
Cosmos 2333 Rocket 2.3 00:14:46 52° SE 00:15:16 54° ESE 00:20:46 10° NE
GP-B 3.7 00:14:01 10° N 00:18:22 53° W 00:19:17 44° SW
Cosmos 972 Rocket 4.4 00:19:51 50° ESE 00:20:20 51° ESE 00:26:10 10° NNE
CZ-2C R/B 2.9 00:22:35 57° E 00:23:05 61° ENE 00:27:50 10° N
Cosmos 1340 Rocket 4.1 00:19:49 10° N 00:23:01 31° ENE 00:23:01 31° ENE
Cosmos 1707 3.8 00:20:32 10° N 00:23:39 36° NE 00:23:39 36° NE
Cosmos 2333 4.2 00:22:19 34° SW 00:24:53 79° WNW 00:30:33 10° NNE
Cosmos 1842 3.9 00:23:23 10° NNW 00:27:06 47° W 00:27:06 47° W
Cosmos 1378 4.5 00:23:50 10° N 00:26:39 32° NE 00:26:39 32° NE
Spot 4 4.1 00:26:46 51° SW 00:27:26 56° WSW 00:32:10 10° NNW
Cosmos 1825 Rocket 3.4 00:25:27 10° N 00:29:43 82° NE 00:29:43 82° NE
Cosmos 1818 3.4 00:28:37 54° SSW 00:29:53 82° SE 00:35:22 10° NE
Mayak 1.0 00:27:24 10° NE 00:28:57 15° ENE 00:28:57 15° ENE
ATLAS 2AS CENTAUR R/B 3.6 00:24:55 10° WSW 00:32:46 59° NW 00:40:50 10° NE
Cosmos 2058 Rocket 4.3 00:34:07 29° ENE 00:34:07 29° ENE 00:37:19 10° NNE
NOSS 0 Rocket 3.9 00:33:35 55° SSE 00:34:34 62° ESE 00:40:45 10° NE
USA 81 4.3 00:30:52 10° NNW 00:36:06 62° W 00:37:08 51° SW
Cosmos 2369 Rocket 4.1 00:33:02 10° NNW 00:37:35 23° NE 00:41:42 11° E
Cosmos 1666 3.9 00:37:37 35° W 00:38:01 36° WNW 00:41:38 10° N
Cosmos 2237 Rocket 2.2 00:38:56 57° ESE 00:39:05 57° ESE 00:44:37 10° NE
CZ-4B R/B 3.1 00:36:49 10° NNE 00:41:37 89° ESE 00:41:52 81° S
NOSS 3-4 (A) 3.4 00:41:24 56° S 00:42:28 64° SE 00:48:57 10° NE
Cosmos 2184 Rocket 4.2 00:41:37 47° ESE 00:42:32 51° E 00:48:31 10° NNE
NOSS 3-4 (C) 3.4 00:41:33 56° S 00:42:34 64° SE 00:49:03 10° NE
Cosmos 1758 Rocket 3.5 00:39:48 10° N 00:43:54 79° N 00:43:54 79° N
Cosmos 1980 3.6 00:44:18 64° SE 00:44:46 67° ESE 00:50:26 10° NE
Cosmos 2074 Rocket 4.1 00:46:12 51° SE 00:47:15 57° E 00:53:22 10° NNE
ERBS 4.3 00:44:10 10° WNW 00:47:18 30° N 00:48:45 22° NE
Cosmos 2228 4.1 00:48:03 35° ENE 00:48:03 35° ENE 00:51:24 10° NNE
CZ-4 R/B 4.1 00:43:10 10° N 00:47:51 62° WNW 00:48:41 52° WSW
CENTAUR R/B 3.0 00:40:51 10° NW 00:48:34 88° SW 00:51:45 43° SE
Meteor 1-4 Rocket 3.4 00:52:20 51° NNW 00:52:20 51° NNW 00:55:26 10° N
Cosmos 1184 Rocket 4.4 00:48:36 10° NNW 00:50:37 34° NNW 00:50:37 34° NNW
ATLAS CENTAUR R/B 2.1 00:51:49 10° NW 00:54:44 45° N 00:54:44 45° N
Cosmos 2297 3.5 00:51:14 10° NNW 00:56:56 86° WSW 00:57:38 70° SSE
Lacrosse 5 2.4 00:54:16 10° W 00:59:17 59° NNW 01:04:20 10° ENE
Cosmos 2181 Rocket 4.5 00:54:13 10° NNW 01:00:29 53° W 01:02:14 41° SW
ALOS 2 2.6 01:03:19 76° NNW 01:03:19 76° NNW 01:07:25 10° NNW
USA 215 3.2 01:00:30 40° ESE 01:03:10 90° S 01:09:46 10° WNW
Cosmos 1271 Rocket 3.9 01:07:20 37° NE 01:07:20 37° NE 01:09:50 10° NNE
Cosmos 1777 Rocket 3.8 01:01:17 10° NNW 01:06:35 89° NE 01:06:54 80° SSE
Cosmos 2278 Rocket 3.1 01:07:53 10° NW 01:12:55 34° WSW 01:13:15 33° WSW
Cosmos 1610 Rocket 4.5 01:18:16 59° SE 01:19:11 66° E 01:25:23 10° NNE
Meteor 2-8 Rocket 4.3 01:13:08 10° N 01:19:21 85° E 01:20:22 64° SSE
Cosmos 389 Rocket 4.0 01:24:17 34° NNE 01:24:17 34° NNE 01:26:33 10° NNE
H-2A R/B 4.4 01:24:34 14° W 01:24:45 14° W 01:27:08 10° NW
CZ-4B R/B 3.7 01:25:59 21° NNE 01:25:59 21° NNE 01:27:31 10° N
COSMOS 2455 2.7 01:18:50 10° NW 01:24:51 73° WSW 01:25:25 68° SSW
Cosmos 1726 Rocket 3.9 01:26:19 62° NW 01:26:19 62° NW 01:30:29 10° N
Meteor 2-5 Rocket 3.8 01:20:28 10° NNW 01:26:18 66° W 01:27:01 60° SW
RESURS DK-1 3.1 01:29:02 51° NNE 01:29:02 51° NNE 01:32:13 10° NNE
Meteor 1-24 Rocket 3.6 01:25:43 10° NNW 01:31:32 89° W 01:32:14 71° S
Meteor 2-19 Rocket 4.4 01:34:39 60° SE 01:35:26 67° E 01:41:30 10° NNE
GEOS 3 Rocket 3.8 01:35:00 52° ESE 01:36:11 70° NE 01:41:28 10° NW
Landsat 5 4.2 01:41:03 47° NE 01:41:03 47° NE 01:44:53 10° N
Cosmos 2219 Rocket 3.4 01:37:45 21° WSW 01:40:54 38° NW 01:46:11 10° NNE
Cosmos 2154 Rocket 3.9 01:40:26 63° SSE 01:41:20 75° E 01:47:33 10° NNE
CZ-2C R/B 3.0 01:36:12 10° N 01:41:28 58° WNW 01:42:23 51° WSW
Cosmos 1953 4.2 01:42:51 23° ENE 01:42:51 23° ENE 01:45:16 10° NE
NOSS 2-2 (D) 4.5 01:45:17 41° ENE 01:45:17 41° ENE 01:48:46 10° NE
SL-16 R/B 2.0 01:45:21 75° SSE 01:45:39 78° ESE 01:51:21 10° NNE
Cosmos 1766 4.1 01:51:40 50° NNE 01:51:40 50° NNE 01:54:44 10° NNE
CZ-4C R/B 4.3 01:52:15 41° NNW 01:52:15 41° NNW 01:54:46 10° NNW
Cosmos 1937 Rocket 4.3 01:52:17 10° NNW 01:57:24 46° ENE 01:58:55 36° E
Cosmos 1898 Rocket 3.8 01:54:05 10° NNW 01:59:22 61° ENE 02:00:11 54° ESE
Cosmos 2333 Rocket 3.5 01:56:44 21° W 01:59:47 35° NW 02:04:58 10° NNE
Cosmos 1674 3.7 01:58:25 10° N 02:01:24 45° NNE 02:01:24 45° NNE
NOSS 2-2 (C) 3.9 02:05:04 61° ENE 02:05:04 61° ENE 02:09:17 10° NE
Cosmos 1570 Rocket 4.3 02:04:38 52° ESE 02:04:38 52° ESE 02:09:38 10° NNE
Iridium 4 Rocket 3.2 02:05:30 74° NNE 02:05:30 74° NNE 02:09:31 10° N
Mayak -0.7 02:02:02 10° N 02:05:36 54° NW 02:05:36 54° NW
Meteor 1-21 Rocket 4.4 02:02:33 10° N 02:08:31 73° ENE 02:09:36 58° SE
Cosmos 1943 Rocket 2.9 02:04:51 10° NNW 02:10:12 47° NE 02:12:39 29° ESE
Cosmos 2058 Rocket 4.3 02:11:24 32° WNW 02:11:24 32° WNW 02:15:22 10° N
SL-8 Rocket 4.1 02:14:38 54° SE 02:15:49 64° E 02:21:59 10° NNE
Meteor 2-15 4.4 02:09:58 10° N 02:16:08 80° E 02:17:20 59° SSE
Spot 2 4.3 02:13:10 10° N 02:17:06 67° NW 02:17:06 67° NW
Cosmos 2150 Rocket 4.3 02:14:13 10° NNW 02:19:21 60° ENE 02:20:21 50° ESE
Cosmos 990 Rocket 4.4 02:15:47 10° NNW 02:21:00 60° ENE 02:22:09 48° ESE
SL-16 R/B 4.2 02:16:08 10° ESE 02:21:17 28° NE 02:26:26 10° N
Cosmos 2218 Rocket 4.3 02:20:29 49° SE 02:21:56 61° E 02:28:14 10° NNE
Cosmos 2369 Rocket 2.1 02:16:42 10° NNW 02:22:28 85° ENE 02:23:26 63° SE
Cosmos 962 Rocket 4.4 02:21:44 60° SW 02:22:52 78° W 02:29:12 10° N
Cosmos 2237 Rocket 3.5 02:20:44 22° W 02:23:28 33° NW 02:28:34 10° NNE
ATLAS CENTAUR R/B 3.5 02:17:11 10° WNW 02:25:23 39° WSW 02:25:23 39° WSW
Cosmos 371 Rocket 4.3 02:27:33 35° ESE 02:27:33 35° ESE 02:31:53 10° NE
NOSS 2-2 (E) 3.9 02:29:25 63° WNW 02:29:41 64° NW 02:34:54 10° NE
Cosmos 2298 Rocket 4.0 02:24:35 10° NNW 02:29:57 80° ENE 02:30:41 66° SE
NOSS 3-4 (A) 4.5 02:28:48 16° W 02:33:43 44° NNW 02:40:08 10° NE
NOSS 3-4 (C) 4.5 02:28:56 16° W 02:33:49 45° NNW 02:40:14 10° NE
Meteor 2-21 4.4 02:35:40 59° S 02:36:55 84° E 02:43:11 10° NNE
Cosmos 1943 3.8 02:37:57 41° SE 02:38:34 42° ESE 02:43:54 10° NE
CENTAUR R/B 4.0 02:32:13 10° WNW 02:38:42 29° WSW 02:38:54 29° WSW
Cosmos 2344 4.5 02:29:28 10° NW 02:39:28 88° NE 02:53:21 10° SE
Cosmos 2341 Rocket 4.2 02:40:04 49° WSW 02:41:26 60° WNW 02:47:39 10° N
Cosmos 1809 Rocket 4.4 02:40:52 59° SSW 02:42:08 87° W 02:48:23 10° N
Lacrosse 5 3.0 02:38:04 10° WNW 02:42:56 43° N 02:47:47 10° ENE
USA 215 4.0 02:47:50 34° WSW 02:47:50 34° WSW 02:52:39 10° WNW
SL-14 R/B 3.7 02:44:05 10° N 02:47:54 62° NE 02:47:54 62° NE
Cosmos 1076 Rocket 3.9 02:44:20 10° NNW 02:48:03 57° NW 02:48:03 57° NW
Cosmos 1626 3.9 02:45:33 10° N 02:48:46 26° ENE 02:49:19 25° E
Cosmos 1733 3.7 02:49:33 57° NNE 02:49:33 57° NNE 02:52:42 10° NNE
H-2A R/B 2.7 02:45:15 10° NNE 02:48:32 59° NE 02:48:32 59° NE
Cosmos-2242 3.5 02:51:42 52° E 02:51:47 52° E 02:56:04 10° NNE
Cosmos 1339 Rocket 4.4 02:46:11 10° N 02:52:23 84° W 02:53:54 54° S
Cosmos 2084 Rocket 4.0 02:54:52 45° NW 02:55:00 45° NW 02:58:49 10° NE
SL-08 R/B 4.0 02:54:58 36° ESE 02:56:26 50° ENE 03:01:04 10° N
CZ-4B R/B 4.0 02:59:32 13° NW 02:59:32 13° NW 03:00:02 10° NW
TIMED 4.5 02:54:00 10° NNW 02:58:25 79° ENE 02:58:30 78° E
Cosmos 1470 3.0 03:01:04 63° N 03:01:04 63° N 03:04:25 10° N
Cosmos 864 Rocket 4.4 03:00:32 54° SSW 03:02:03 86° W 03:08:17 10° N
Cosmos 2208 Rocket 4.3 03:03:56 52° WSW 03:04:59 63° WNW 03:10:25 10° NNE
ADEOS Rocket 3.3 03:01:41 10° NNE 03:07:03 49° E 03:08:42 37° SE
Cosmos 2263 4.1 03:02:14 10° NW 03:07:47 63° WSW 03:08:24 59° SSW
PSLV R/B 3.9 03:07:55 82° ENE 03:07:55 82° ENE 03:12:03 10° NNW
Cosmos 1703 4.4 03:04:29 10° N 03:08:11 37° ENE 03:08:59 33° ESE
Cosmos 1727 Rocket 4.0 03:03:42 10° NNW 03:09:49 65° W 03:11:15 50° SSW
Cosmos 2366 rocket 4.0 03:09:12 50° SSW 03:10:55 73° WNW 03:17:18 10° N
Cosmos 1328 3.9 03:07:57 10° NNW 03:11:36 73° NNW 03:11:36 73° NNW
Cosmos 2058 3.6 03:11:23 10° N 03:15:25 49° ENE 03:16:15 42° ESE
Cosmos 1953 3.4 03:18:35 33° WNW 03:18:35 33° WNW 03:21:57 10° N
Cosmos 1603 3.9 03:19:17 43° WSW 03:20:52 60° NW 03:26:28 10° NNE
Meteor 1-11 4.1 03:18:32 10° NNW 03:24:12 89° WSW 03:26:09 43° S
Cosmos 372 Rocket 4.4 03:21:52 10° NNW 03:26:59 60° ENE 03:30:52 18° SE
NPP 3.9 03:21:49 10° NNE 03:27:11 60° ESE 03:29:00 40° SSE
CBERS-1 4.4 03:22:35 10° NNE 03:27:38 56° E 03:29:14 39° SSE
SL-16 R/B 3.8 03:27:12 17° W 03:30:24 27° NW 03:35:11 10° NNE
Cosmos 1842 Rocket 3.9 03:32:05 48° SE 03:32:56 59° E 03:37:14 10° NNE
Cosmos 1766 Rocket 4.5 03:29:56 10° NNW 03:33:34 34° W 03:33:34 34° W
Cosmos 2098 Rocket 4.3 03:32:57 27° SSE 03:35:49 49° E 03:40:30 10° NNE
Cosmos 1763 Rocket 3.3 03:34:52 54° SSW 03:36:03 84° ESE 03:41:10 10° NNE
Cosmos 1937 Rocket 4.3 03:34:32 10° NW 03:39:03 33° W 03:39:03 33° W
Cosmos 540 Rocket 4.4 03:38:05 28° SSE 03:40:03 38° ESE 03:44:48 10° NE
Cosmos 1743 Rocket 3.5 03:36:40 10° NNW 03:41:05 62° W 03:41:29 59° SW
PSLV R/B 4.4 03:36:55 10° N 03:41:15 39° WNW 03:42:02 36° W
MOS 1 Rocket 4.5 03:40:37 10° NNE 03:44:31 32° E 03:46:38 21° SE
Cosmos 332 Rocket 4.4 03:43:39 39° W 03:44:53 48° WNW 03:49:40 10° NNE
Cosmos 2151 2.8 03:40:41 10° NNW 03:44:55 78° W 03:45:30 64° SSW
Iridium 2 3.6 03:47:25 66° SSE 03:47:54 81° E 03:51:47 10° N
Cosmos 1242 Rocket 2.5 03:49:40 68° SE 03:49:54 72° E 03:53:28 10° NNE
Cosmos 1125 Rocket 3.4 03:46:26 10° NNW 03:51:41 80° WSW 03:54:26 29° SSE
Cosmos 1943 Rocket 2.7 03:48:51 10° NW 03:53:50 36° WSW 03:54:06 36° WSW
Resurs 1-4 Rocket 2.5 03:52:32 10° NNE 03:57:45 58° E 04:00:30 27° S
IRS-P3 4.1 03:53:19 10° NNE 03:58:41 77° WNW 04:00:45 38° SSW
Cosmos 1315 Rocket 4.3 03:56:18 10° N 04:00:06 36° ENE 04:03:50 10° SE
Cosmos 2123 Rocket 3.9 03:54:49 10° N 04:01:10 90° SSE 04:05:32 21° S
Cosmos 1656 Rocket 3.6 03:56:05 10° NW 04:01:45 65° WSW 04:05:18 23° S
SL-16 R/B 2.5 04:00:43 25° S 04:04:28 70° WSW 04:10:41 10° NNW
Cosmos 2369 Rocket 3.7 04:01:54 10° WNW 04:05:11 19° W 04:05:11 19° W
Cosmos 371 Rocket 4.2 04:06:13 29° W 04:07:52 38° NW 04:12:25 10° NNE
Cosmos 1821 Rocket 3.9 04:04:53 32° SSW 04:08:02 78° W 04:14:16 10° N
CZ-2D R/B 2.3 04:03:11 10° NNE 04:08:36 69° ESE 04:11:34 27° S
AQUA 3.8 04:06:12 10° N 04:10:59 72° WNW 04:12:47 38° SW
Helios 1A Rocket 3.6 04:11:54 10° N 04:15:44 39° WNW 04:16:42 34° W
ATLAS 2AS CENTAUR R/B 4.5 04:11:02 10° NW 04:18:35 39° NNE 04:25:54 10° E
Cosmos 1633 Rocket 3.9 04:14:27 10° N 04:18:45 49° ENE 04:22:58 10° SSE
Gblst 52 Del rocket 4.2 04:15:51 30° WSW 04:18:52 72° SSE 04:24:26 10° ENE
USA 161 4.1 04:18:36 10° E 04:19:25 12° ENE 04:20:12 10° NE
USA 32 4.3 04:14:52 10° NNW 04:19:56 49° W 04:22:01 32° SW
USA 229 DEB 3.8 04:13:48 10° NW 04:20:48 60° SW 04:27:55 10° SSE
USA 229 3.8 04:13:55 10° NW 04:20:54 60° SW 04:28:02 10° SSE
Cosmos 1934 Rocket 3.9 04:19:10 27° SSW 04:22:39 78° W 04:28:46 10° N
Cosmos 1943 3.9 04:19:46 24° WSW 04:22:40 42° NW 04:28:05 10° NNE
Cosmos 1626 3.2 04:20:52 10° NNW 04:23:56 28° W 04:23:56 28° W
H-2A R/B 4.4 04:22:05 10° NNW 04:24:12 14° WNW 04:25:08 13° WNW
Cosmos 841 Rocket 3.8 04:22:03 31° WSW 04:24:20 55° WNW 04:29:27 10° NNE
Cosmos 1500 Rocket 4.5 04:21:30 10° NNW 04:25:22 30° W 04:25:59 29° WSW
NOSS 3-1 (A) 4.2 04:18:32 10° NW 04:25:51 77° NE 04:34:07 10° SE
Lacrosse 5 2.2 04:21:25 10° WNW 04:26:30 69° NNE 04:31:33 10° ESE
ARIANE 5 R/B 2.6 04:24:16 10° NNE 04:29:32 87° ESE 04:32:51 23° SSW
UNKNOWN OBJECT B 3.5 04:28:39 10° NNE 04:32:39 53° E 04:35:28 18° S
Cosmos 1400 Rocket 2.8 04:29:17 10° NNW 04:33:08 56° W 04:34:44 32° SSW
SL-08 R/B 4.4 04:33:57 24° WSW 04:34:33 24° W 04:38:27 10° NW
Cosmos 1605 Rocket 4.0 04:32:11 19° S 04:36:56 86° W 04:43:25 10° N
UNK 4.4 04:35:54 29° SW 04:37:13 35° W 04:41:28 10° NNW
Cosmos 304 Rocket 4.2 04:37:36 27° WSW 04:39:54 50° WNW 04:44:36 10° NNE
Cosmos 1726 2.6 04:38:32 19° S 04:41:00 57° E 04:44:41 10° NNE
MOZ.5/SAFIR/RUBIN 5/SL-8 3.8 04:39:36 17° S 04:43:08 63° WSW 04:47:49 10° NNW
SL-27 R/B 3.7 04:41:53 16° SSE 04:44:07 35° ESE 04:47:18 10° NE
Cosmos 2369 4.3 04:40:03 10° NNW 04:45:40 59° NE 04:51:15 10° SE
ADEOS II 3.6 04:43:24 10° NNE 04:48:09 33° E 04:52:51 10° SSE
Cosmos 1666 Rocket 3.5 04:47:26 10° NNW 04:51:51 69° W 04:56:03 11° S
Cosmos 2058 4.5 04:49:08 10° NW 04:52:00 18° W 04:52:26 18° W
ADEOS Rocket 3.8 04:47:38 10° N 04:52:27 31° WNW 04:55:38 18° WSW
Cosmos 1805 Rocket 3.9 04:49:30 10° NNW 04:53:46 45° W 04:56:30 20° SSW
IRS-1D 3.8 04:49:07 10° N 04:54:06 55° WNW 04:57:32 20° SW
NOSS 3-1 (C) 4.0 04:48:13 10° NW 04:55:33 70° SW 05:03:45 10° SSE
In-Cosmos 22 Rocket 4.2 04:50:08 10° N 04:55:37 79° ENE 05:00:57 10° SSE
Cosmos 2221 3.0 04:54:47 24° SW 04:57:05 45° WNW 05:01:16 10° N
Abrixas 4.1 05:00:13 16° SSE 05:00:13 16° SSE 05:01:11 10° SSE
Cosmos 1656 4.4 04:54:07 10° NNW 04:59:46 59° NE 05:05:25 10° SE
Cosmos 1933 Rocket 4.2 04:56:12 10° N 05:00:39 60° ENE 05:05:04 10° SSE
Spot 4 Rocket 4.5 04:57:40 10° N 05:02:37 47° WNW 05:06:08 18° SW
ADEOS 3.7 04:57:43 10° N 05:02:53 61° WNW 05:06:52 17° SW
BREEZE-M DEB (TANK) 3.3 05:05:03 20° WSW 05:07:08 43° S 05:14:13 10° ESE
BREEZE M DEB (TANK) 3.7 05:05:41 20° SW 05:07:20 26° SSW 05:14:14 10° SE
Okean O Rocket 3.5 05:06:53 10° NNE 05:10:48 30° E 05:14:41 10° SSE
Cosmos 1802 Rocket 4.4 05:05:21 10° S 05:11:27 64° E 05:17:42 10° NNE
Cosmos 2100 Rocket 4.2 05:07:20 10° S 05:13:43 81° E 05:20:07 10° NNE
COSMOS 2406 3.3 05:11:14 16° SW 05:15:52 74° WNW 05:21:37 10° NNE
Cosmos 1908 4.3 05:14:06 18° WSW 05:16:06 28° WNW 05:19:28 10° N
Cosmos 1151 Rocket 3.8 05:17:30 10° S 05:21:40 52° E 05:25:51 10° NNE
Cosmos 540 Rocket 4.2 05:17:56 15° WSW 05:21:42 38° NW 05:26:29 10° NNE
Cosmos 2285 Rocket 4.1 05:16:37 13° SSW 05:22:21 72° WNW 05:28:48 10° NNE
MOS 1 Rocket 4.0 05:18:58 10° N 05:22:48 32° WNW 05:25:56 14° WSW
Cosmos 1300 2.8 05:22:37 12° SSW 05:26:07 61° WNW 05:29:56 10° N
Meteor 2-10 4.3 05:20:27 10° SSW 05:26:11 88° WNW 05:31:51 10° NNE
Sich 1 3.9 05:23:52 10° NNW 05:27:45 31° W 05:31:34 10° SSW
CZ-2D R/B 3.8 05:27:14 10° N 05:31:06 44° WNW 05:34:38 12° SW
Cosmos 1980 Rocket 3.4 05:26:12 10° NNW 05:31:38 48° NE 05:37:03 10° SE
Cosmos 2278 3.7 05:29:53 10° NNW 05:35:31 69° WSW 05:41:07 10° SSE
Cosmos 1315 Rocket 4.0 05:33:14 10° NW 05:36:31 24° W 05:39:44 10° SW
Resurs 1-4 Rocket 3.3 05:32:56 10° N 05:37:17 27° WNW 05:41:35 10° WSW
Cosmos 2173 Rocket 4.1 05:33:46 10° SSW 05:40:04 74° WNW 05:46:29 10° N
Cosmos 1455 3.2 05:39:05 10° S 05:42:42 48° E 05:46:21 10° NNE
Cosmos 1470 Rocket 3.8 05:40:05 10° NNW 05:44:14 46° W 05:48:22 10° SSW
Cosmos 1697 Rocket 2.8 05:41:55 10° NNW 05:47:38 88° ENE 05:53:19 10° SSE
CZ-2D R/B 3.5 05:43:59 10° N 05:48:12 24° WNW 05:52:22 10° WSW
USA 161 2.5 05:48:01 12° SW 05:49:00 15° W 05:50:17 10° NW
SL-16 R/B 4.2 05:46:10 10° WSW 05:49:14 14° W 05:52:17 10° NW
Cosmos 2228 Rocket 3.3 05:47:36 10° SSW 05:51:59 56° WNW 05:56:23 10° N
PSLV R/B 3.9 05:51:36 10° NNE 05:55:45 79° WNW 05:59:53 10° SSW
Cosmos 1633 Rocket 4.4 05:52:58 10° NW 05:56:12 20° W 05:59:25 10° SW
Cosmos 1538 Rocket 4.2 05:52:26 10° SW 05:57:46 64° WNW 06:03:07 10° NNE
Cosmos 1515 Rocket 3.7 05:54:03 10° SSW 05:58:22 57° WNW 06:02:46 10° N
Cosmos 1459 Rocket 4.2 05:56:59 10° SSW 06:02:55 51° WNW 06:08:51 10° N
